Weather History for Wausau, WI

Change the Weather History Date:

Tuesday, August 13, 2013

  Actual Average Record
Temperature  
Mean Temperature 59 °F 68 °F  
Max Temperature 70 °F 78 °F 96 °F (1944)
Min Temperature 48 °F 58 °F 42 °F (1916)
Degree Days  
Heating Degree Days 6 1  
Month to date heating degree days 18 13  
Since 1 June heating degree days 134 125  
Since 1 July heating degree days 48 36  
Cooling Degree Days 0 4  
Month to date cooling degree days 13 58  
Year to date cooling degree days 319 318  
Since 1 June cooling degree days 282 299  
Growing Degree Days 9 (Base 50)    
Moisture  
Dew Point 44 °F    
Average Humidity 65    
Maximum Humidity 93    
Minimum Humidity 36    
Precipitation  
Precipitation 0.00 in 0.13 in 1.94 in (1940)
Month to date precipitation 0.25 1.79  
Year to date precipitation 24.35 19.84  
Snow  
Snow 0.00 in 0.00 in 0.00 in ()
Month to date snowfall 0.0 0.0  
Since 1 June snowfall 0.0 0.0  
Since 1 July snowfall 0.0 0.0  
Snow Depth 0.00 in    
Sea Level Pressure  
Sea Level Pressure 30.14 in    
Wind  
Wind Speed 6 mph (NNW)    
Max Wind Speed 16 mph    
Max Gust Speed 22 mph    
Visibility 10 miles    
Events      
T = Trace of Precipitation, MM = Missing Value Source: NWS Daily Summary

Daily Weather History Graph

Daily Weather History Graph

Search for Another Location

Airport:

Trip Planner

Search our weather history database for the weather conditions in past years. The results will help you decide how hot, cold, wet, or windy it might be!

Date:

Astronomy

Aug. 13, 2013 Rise Set
Actual Time 5:58 AM CDT 8:07 PM CDT
Civil Twilight 5:26 AM CDT 8:39 PM CDT
Nautical Twilight 4:46 AM CDT 9:18 PM CDT
Astronomical Twilight 4:02 AM CDT 10:02 PM CDT
Moon 1:14 PM CDT (8/13) 11:21 PM CDT (8/13)
Length of Visible Light 15h 13m
Length of Day
14h 09m
Waxing Crescent, 42% of the Moon is Illuminated
Aug 13
Waxing Crescent
Aug 14
First Quarter
Aug 20
Full
Aug 28
Last Quarter
Sep 5
New

Hourly Weather History & Observations

Time (CDT) Temp. Dew Point Humidity Pressure Visibility Wind Dir Wind Speed Gust Speed Precip Events Conditions
12:54 AM 53.1 °F 45.0 °F 74% 30.07 in 10.0 mi North 4.6 mph - N/A   Clear
1:54 AM 50.0 °F 44.1 °F 80% 30.08 in 10.0 mi Calm Calm - N/A   Clear
2:54 AM 48.9 °F 46.0 °F 90% 30.09 in 10.0 mi Calm Calm - N/A   Clear
3:54 AM 48.9 °F 46.0 °F 90% 30.10 in 10.0 mi NW 4.6 mph - N/A   Clear
4:54 AM 48.9 °F 46.0 °F 90% 30.11 in 10.0 mi NNW 4.6 mph - N/A   Clear
5:54 AM 48.0 °F 46.0 °F 93% 30.12 in 10.0 mi NW 4.6 mph - N/A   Clear
6:54 AM 48.9 °F 45.0 °F 86% 30.13 in 10.0 mi NNW 3.5 mph - N/A   Clear
7:54 AM 53.1 °F 45.0 °F 74% 30.14 in 10.0 mi NW 5.8 mph - N/A   Clear
8:54 AM 59.0 °F 46.0 °F 62% 30.15 in 10.0 mi Calm Calm - N/A   Clear
9:54 AM 63.0 °F 45.0 °F 52% 30.15 in 10.0 mi NW 9.2 mph - N/A   Clear
10:54 AM 66.0 °F 44.1 °F 45% 30.15 in 10.0 mi North 11.5 mph - N/A   Scattered Clouds
11:54 AM 64.0 °F 43.0 °F 46% 30.16 in 10.0 mi North 10.4 mph 17.3 mph N/A   Overcast
12:54 PM 66.9 °F 43.0 °F 42% 30.16 in 10.0 mi North 9.2 mph - N/A   Overcast
1:54 PM 66.9 °F 43.0 °F 42% 30.16 in 10.0 mi NNW 12.7 mph 21.9 mph N/A   Overcast
2:54 PM 70.0 °F 41.0 °F 35% 30.16 in 10.0 mi North 13.8 mph - N/A   Overcast
3:54 PM 66.9 °F 43.0 °F 42% 30.16 in 10.0 mi North 10.4 mph - N/A   Mostly Cloudy
4:54 PM 66.0 °F 42.1 °F 42% 30.15 in 10.0 mi NNE 6.9 mph - N/A   Mostly Cloudy
5:54 PM 66.9 °F 42.1 °F 40% 30.16 in 10.0 mi North 9.2 mph - N/A   Clear
6:54 PM 64.9 °F 41.0 °F 42% 30.16 in 10.0 mi North 8.1 mph - N/A   Clear
7:54 PM 62.1 °F 42.1 °F 48% 30.16 in 10.0 mi NNE 5.8 mph - N/A   Clear
8:54 PM 59.0 °F 43.0 °F 55% 30.17 in 10.0 mi Calm Calm - N/A   Clear
9:54 PM 55.9 °F 43.0 °F 62% 30.18 in 10.0 mi Calm Calm - N/A   Clear
10:54 PM 54.0 °F 43.0 °F 66% 30.19 in 10.0 mi Calm Calm - N/A   Clear
11:54 PM 52.0 °F 44.1 °F 74% 30.22 in 10.0 mi Calm Calm - N/A   Clear